STARLINK-1934, 46792

Orbit data source: Space-Track

STARLINK-1934, 46792 is a payload satellite owned by SpaceX/Seattle (US) in LEO that was launched on Sat, 24 Oct 2020 UTC via an FALCON 9 launch vehicle from the Air Force Eastern Test Range (AFETR). Payload-class satellites include a variety of spacecraft equipped with specific instruments for various scientific and technological missions. These include communications satellites like Starlink; space stations such as the ISS; scientific satellites like the Hubble; Earth observation satellites from companies like Planet Labs, Umbra, and HawkEye 360; GPS; miniature CubeSats for education and research; and military/defense satellites.

Loading next visibility...
Identifier
46792, 2020-074BF
Orbit
LEO
Country
Flag of USUS
Related business
Manufacturer
SpaceX/Seattle
Mission
Operational Commercial Communications
Bus & Motor
STARLINK, Unknown motor
Mass
260 kg wet, ~248 kg dry
Launch date (UTC)
2020-10-24 (5 years ago)
Launch vehicle
FALCON 9
Launch site
Air Force Eastern Test Range (AFETR)
Object type
Payload
Rocket body
Debris
Shape & HBR
Box + 1 Pan, 4.4 m
Radar Cross Section
13.562 m², Large (>1 m²)

Expand to show TLE details & history
Last TLE update: 1 day ago

TLE from 1 day ago
0 STARLINK-1934
1 46792U 20074BF  25259.58991793  .00000046  00000-0  21953-4 0  9999
2 46792  53.0569  13.1836 0001095  81.3707 278.7406 15.06411934270570
Epoch: 2025-09-16T14:09Z
TLE epoch observation values (Epoch: 2025-09-16T14:09:28.909Z)
Latitude
-0.00001°
Longitude
165.0351°
Altitude
547.939 km
Speed
7.589 km/s
True Right ascension
00h 52m 44s
True Declination
0° 00' 00"
Sunlit
Object was in full shadow at epoch
Visualization orbit readout
Latitude
Unknown
Longitude
Unknown
Altitude
Unknown
Speed
Unknown
Apparent Right ascension
Unknown
Apparent Declination
Unknown
Sunlit
N/A
Visualization observer readout
Local Sidereal Time
14:35:42
Azimuth
Unknown
Elevation
Unknown
Doppler factor
Unknown
Orbital elements
Apogee altitude
548.204 km
Perigee altitude
546.687 km
Semi-major axis
6,925.582 km
Eccentricity
0.00011
Inclination
53.0569°
RAAN
13.1836°
Arg. of periapsis
81.3707°
True anomaly
278.7282°
Mean anomaly
278.7406°
Eccentric anomaly
278.7344°
Mean motion
3.76581 °/min
Orbital period
95.6 mins
BSTAR
0.000021953
Loading maneuver chart data...
Computing Atmospheric mass density...

Documentation

Showing up to 5 results
|